Overview Statistics Trail Chart Weather Telemetry Raw packets
 

This is the latest recevied weather packets stored in our database for station/object N6GPM. If no packets are shown the sender has not sent any weather packets the latest 10 day(s).

<< 47 48 49 50 51 52 53 >>
Time Temp. Humidity Pressure Rain* Wind** Luminosity Snow
1788357258 15.56° C 83% 1019.7 hPa 0 mm - 45 W/m² -
1788356956 15.56° C 84% 1019.8 hPa 0 mm - 35 W/m² -
1788356652 15.56° C 84% 1019.6 hPa 0 mm - 26 W/m² -
1788356347 15° C 85% 1019.6 hPa 0 mm - 19 W/m² -
1788356047 15° C 85% 1019.2 hPa 0 mm - 13 W/m² -
1788355742 15° C 85% 1019.6 hPa 0 mm - 8 W/m² -
1788355437 15° C 85% 1019.5 hPa 0 mm - 5 W/m² -
1788355132 15° C 86% 1019.7 hPa 0 mm - 3 W/m² -
1788354829 14.44° C 86% 1019.6 hPa 0 mm - 1 W/m² -
1788354528 14.44° C 86% 1019.8 hPa 0 mm - 0 W/m² -
1788354224 14.44° C 86% 1019.7 hPa 0 mm - 0 W/m² -
1788353919 15° C 86% 1019.5 hPa 0 mm - 0 W/m² -
1788353615 15° C 86% 1019.5 hPa 0 mm - 0 W/m² -
1788353311 15° C 85% 1019.6 hPa 0 mm - 0 W/m² -
1788353007 15° C 85% 1019.6 hPa 0 mm - 0 W/m² -
1788352701 15° C 84% 1019.7 hPa 0 mm - 0 W/m² -
1788352398 15° C 84% 1019.7 hPa 0 mm - 0 W/m² -
1788352096 15° C 83% 1019.5 hPa 0 mm - 0 W/m² -
1788351793 15.56° C 83% 1019.8 hPa 0 mm - 0 W/m² -
1788351492 15.56° C 83% 1019.6 hPa 0 mm - 0 W/m² -
1788351187 15.56° C 82% 1019.8 hPa 0 mm - 0 W/m² -
1788350883 15.56° C 81% 1019.7 hPa 0 mm - 0 W/m² -
1788350579 15.56° C 81% 1019.8 hPa 0 mm - 0 W/m² -
1788350273 15.56° C 80% 1019.9 hPa 0 mm - 0 W/m² -
1788349970 15.56° C 80% 1019.8 hPa 0 mm - 0 W/m² -

* Rain latest hour (hover to see other rain measurements)
** Current wind speed in m/s (hover to see current wind gust speed)